Regional Weather Roundup
Issued by NWS

Home | Current Version | Previous Version | Text Only | Print | Product List | Glossary On
Versions: 1 2 3 4 5 6 7 8 9 10 11 12 13 14 15 16 17 18 19 20 21 22 23 24 25 26 27 28 29 30 31 32 33 34 35 36 37 38 39 40 41 42 43 44 45 46 47 48 49 50
000
ASUS44 KOUN 290500
RWROK

WEATHER ROUNDUP FOR OKLAHOMA
NATIONAL WEATHER SERVICE NORMAN OK
1200 AM CDT SUN MAR 29 2015

NOTE: "FAIR" INDICATES FEW OR NO CLOUDS BELOW 12,000 FEET WITH NO
      SIGNIFICANT WEATHER AND/OR OBSTRUCTIONS TO VISIBILITY.

OKZ001>007-009>012-014-015-017-290600-
NORTHWEST OKLAHOMA AND THE PANHANDLE

CITY           SKY/WX    TMP DP  RH WIND       PRES   REMARKS
GAGE           CLEAR     60  46  59 S14       29.95F
GUYMON         CLEAR     56  33  42 S12       29.92S
$$

OKZ016-021>023-033>039-044-045-290600-
SOUTHWEST OKLAHOMA

CITY           SKY/WX    TMP DP  RH WIND       PRES   REMARKS
LAWTON/REGL    CLEAR     61  48  62 E8        29.98S
FREDERICK      CLEAR     58  50  75 E13       29.93F
CLINTON        CLEAR     54  46  74 SE8       29.99F
HOBART         CLEAR     53  45  74 E5        29.98S
$$

OKZ018>020-024>031-290600-
CENTRAL OKLAHOMA

CITY           SKY/WX    TMP DP  RH WIND       PRES   REMARKS
OKLAHOMA CITY  CLEAR     60  45  57 SE10      30.01R
OKC/WILEY POST CLEAR     63  45  51 SE16      30.01S
STILLWATER     CLEAR     55  43  63 SE15      30.02S
GUTHRIE        CLEAR     58  44  60 SE13      30.01S
$$

OKZ008-013-054>072-290600-
NORTHEAST OKLAHOMA

CITY           SKY/WX    TMP DP  RH WIND       PRES   REMARKS
TULSA          CLEAR     50  42  74 SE12      30.07F
TULSA/JONES    CLEAR     50  41  71 SE10      30.08F
PONCA CITY     CLEAR     55  41  59 SE13      30.01F
BARTLESVILLE   CLEAR     52  42  69 S10       30.07F
MUSKOGEE       CLEAR     48  39  71 SE17      30.11F
$$

OKZ032-040>043-046>053-073>077-290600-
SOUTH CENTRAL/SOUTHEAST OKLAHOMA

CITY           SKY/WX    TMP DP  RH WIND       PRES   REMARKS
MCALESTER      CLEAR     53  44  71 E5        30.08S
$$




USA.gov is the U.S. government's official web portal to all federal, state and local government web resources and services.